Temp
23 24 24 24 24 24 23 23 23 23 23 23 23 23 23 23 23 23 23 23 23 23 21 21 22 21 21 21 21 21 21 20 20 20 20 20 20 20 20 20 20 20 20
24 23 24 24 24 24 23 23 24 24 23 23 23 23 23 23 23 22 23 23 23 22 21 21 21 21 21 21 21 21 20 21 21 21 20 20 20 20 20 20 19 20 19
24 24 24 24 24 24 24 24 24 23 23 23 23 23 23 23 22 22 22 22 22 22 22 21 21 21 21 21 21 21 21 22 22 20 21 21 21 20 20 20 20 20 19
24 24 24 24 24 24 24 23 23 23 23 23 23 23 22 22 22 22 22 22 22 21 22 21 21 21 21 21 21 21 20 20 21 20 21 21 20 20 20 20 19 19 19
23 24 24 24 24 24 24 23 23 23 23 23 23 22 22 22 22 22 21 22 22 21 21 21 21 21 21 21 21 22 21 21 21 21 21 21 20 20 20 20 19 19 19
24 24 24 24 24 24 23 23 23 23 23 23 22 22 22 21 21 21 21 22 22 22 21 21 21 21 22 22 21 22 22 21 22 21 21 21 21 20 20 19 20 19 19
24 24 24 24 24 23 23 23 23 23 22 22 21 22 22 22 22 22 22 22 22 21 22 21 21 21 22 22 21 22 22 22 22 21 21 22 22 21 20 20 20 19 19
25 24 24 24 24 23 23 23 22 22 22 21 21 22 22 22 22 22 22 22 22 22 22 22 22 21 22 22 22 22 22 22 22 22 22 22 22 21 20 20 20 19 19
24 24 24 24 24 23 23 22 22 22 22 22 22 22 22 22 22 22 22 22 22 22 22 22 22 21 21 22 22 22 22 22 21 22 22 22 22 21 20 20 20 20 19
24 24 24 24 24 23 23 23 23 23 23 23 23 22 22 22 22 22 22 22 22 22 22 22 22 21 21 22 23 22 22 22 22 22 22 22 22 21 20 20 20 20 19
23 24 24 24 24 24 24 23 23 22 23 23 22 22 22 22 22 22 22 22 22 22 21 22 22 21 22 22 22 22 23 22 22 22 22 22 22 22 20 20 21 21 20
23 24 25 25 24 24 24 23 23 22 22 22 22 22 22 23 23 22 23 23 22 21 21 21 21 21 21 22 22 21 22 23 22 22 22 22 22 22 21 21 21 21 20
25 24 24 25 24 24 24 24 23 23 23 22 22 23 23 23 23 23 23 23 23 22 21 22 22 21 21 22 22 22 22 22 22 22 22 22 22 22 21 21 21 21 21
24 25 25 25 24 24 24 23 23 23 23 24 23 23 23 23 23 23 23 23 23 23 22 22 22 22 22 22 21 22 22 22 23 22 22 22 22 22 21 21 21 21 21
24 24 24 24 24 24 24 24 23 23 23 23 24 23 24 23 24 24 23 23 23 23 22 23 22 22 22 22 22 22 23 23 22 22 22 22 22 23 22 21 21 21 21
25 25 25 24 24 24 24 24 24 23 23 23 24 24 24 24 23 24 23 24 23 23 23 22 22 22 22 22 22 22 22 23 23 22 23 23 22 22 22 22 21 21 21
27 26 25 26 25 24 24 24 24 24 24 24 23 23 23 23 23 23 23 23 23 23 23 23 22 22 21 21 20 22 22 22 22 22 22 23 23 22 22 22 22 21 21
27 27 26 26 25 25 24 25 24 23 24 24 24 24 23 24 23 24 23 23 23 22 22 22 22 22 22 22 22 22 22 22 23 23 22 22 23 23 22 22 22 22 21
28 27 26 26 25 24 24 24 23 22 23 24 24 24 23 23 23 23 22 23 23 22 22 22 21 21 22 22 22 22 21 22 24 23 23 23 23 23 23 23 22 22 21
28 27 26 26 25 25 23 24 23 22 24 23 24 24 24 24 23 23 23 23 22 22 22 21 21 21 21 21 21 21 21 22 23 23 23 23 23 23 23 23 22 22 22
26 26 25 25 23 23 23 22 23 24 24 23 24 23 23 23 23 23 23 22 22 21 21 21 21 21 21 20 19 21 21 22 23 23 23 23 23 23 23 23 22 23 23
24 24 24 23 23 23 23 23 22 23 23 23 23 23 23 23 23 23 23 22 22 21 21 20 20 20 20 21 19 17 17 21 23 24 23 23 23 23 23 23 22 22 22
25 23 23 23 23 23 23 23 23 23 23 23 23 24 23 23 23 22 22 22 22 21 21 20 20 20 20 20 20 20 17 18 19 23 23 23 23 23 23 23 22 22 22
24 23 23 23 23 23 23 23 23 22 22 23 23 23 23 22 22 22 22 21 21 20 20 20 19 20 20 19 19 21 21 21 18 19 22 23 21 23 23 23 22 23 22
24 23 23 23 22 22 23 23 23 23 23 23 23 22 22 21 21 20 20 20 20 20 20 20 19 19 19 20 20 20 18 19 22 19 18 19 22 23 23 23 22 22 22
23 23 23 23 22 22 23 23 22 23 22 22 22 22 21 20 20 20 20 20 20 20 20 20 19 19 20 20 21 21 22 21 20 20 18 19 20 22 21 22 22 21 21
Height
806 808 809 812 814 815 816 818 819 819 821 822 823 825 826 827 828 828 830 831 832 833 835 837 838 839 838 839 840 841 842 844 844 846 846 847 848 849 850 851 852 853 854
803 808 810 812 814 816 818 819 820 821 822 823 824 826 828 830 831 832 833 833 834 835 836 838 839 840 841 840 842 844 844 845 846 847 848 849 850 851 851 851 853 854 855
804 807 809 812 815 818 819 820 821 822 824 826 826 827 829 830 832 833 835 834 836 836 838 838 839 840 842 841 843 845 845 845 846 847 848 850 851 852 853 853 853 855 857
804 807 810 813 816 818 820 822 822 823 824 826 827 828 829 831 832 834 834 835 837 838 838 839 839 840 841 842 843 845 845 846 847 848 849 850 852 854 855 856 855 855 857
805 808 811 815 817 818 820 822 824 825 826 827 828 830 830 831 833 835 836 837 837 838 840 840 840 840 840 843 843 844 846 847 847 848 849 851 852 855 856 857 857 857 857
805 808 812 814 817 818 821 822 825 826 827 828 829 830 831 833 835 836 836 836 837 838 840 841 840 840 842 844 845 844 846 848 848 850 850 851 852 854 856 858 859 859 859
805 808 811 814 816 818 820 822 823 826 827 829 830 831 832 833 835 836 837 837 838 839 840 840 841 841 842 844 845 847 847 848 850 851 852 852 853 854 855 857 859 860 860
805 809 811 814 816 818 820 822 824 826 828 830 831 832 832 834 835 837 838 840 840 840 840 840 841 842 843 845 847 848 849 849 850 851 852 853 854 855 856 856 858 860 861
806 808 812 815 817 819 820 823 824 826 827 830 831 832 833 834 836 837 838 839 841 841 841 841 842 843 844 844 846 848 849 850 850 851 851 853 855 856 857 857 857 859 861
806 808 811 814 816 818 820 822 824 825 826 828 831 833 834 835 836 837 839 840 841 841 842 841 842 843 843 843 844 846 847 848 849 849 850 852 853 856 856 857 857 858 860
809 809 811 813 816 817 819 821 824 826 827 828 831 833 835 836 836 837 839 840 841 842 842 842 841 843 843 843 843 845 846 848 848 848 849 850 851 852 854 855 857 858 860
808 809 810 812 815 817 819 820 822 825 828 829 830 832 834 835 836 836 837 838 840 841 841 842 842 842 843 843 843 845 845 846 848 848 849 849 851 852 853 854 855 856 858
804 808 810 812 814 817 819 821 823 825 826 828 831 831 831 833 834 834 835 836 838 840 841 841 841 842 842 842 842 844 846 847 847 846 848 850 851 851 853 853 854 855 857
803 805 809 812 814 817 819 821 824 825 824 823 829 831 829 831 833 833 833 834 837 839 840 840 840 841 841 841 841 842 843 844 845 846 846 848 849 851 852 853 854 855 855
802 804 807 810 813 815 817 820 823 824 824 826 826 829 829 830 830 831 831 832 834 836 838 839 838 838 839 839 840 840 841 840 842 843 844 847 848 848 850 851 853 854 855
800 802 805 810 813 816 818 819 820 823 825 825 825 827 827 827 828 829 830 832 833 834 835 835 835 836 836 837 837 838 839 838 838 840 842 843 846 846 847 849 851 852 854
796 800 804 809 812 814 816 817 816 818 821 822 822 824 824 825 827 827 828 829 831 831 832 832 832 832 833 834 835 836 837 836 836 838 839 840 842 844 845 847 847 850 850
793 797 802 805 810 812 813 814 815 816 818 819 820 821 821 821 824 824 825 826 828 827 827 828 828 829 829 829 831 831 832 833 832 834 835 836 837 839 841 843 844 846 847
790 796 801 805 807 809 811 813 816 817 816 818 818 818 819 820 821 822 822 822 823 824 824 823 823 826 826 826 827 827 827 828 828 829 830 832 833 834 835 838 840 843 844
792 798 801 805 805 808 811 813 814 815 816 817 819 819 818 819 820 820 821 821 821 821 820 820 820 821 822 822 824 824 824 824 823 824 827 829 829 831 833 834 836 837 838
794 799 802 803 807 808 810 812 812 813 815 817 817 818 818 818 818 819 819 819 818 817 817 816 816 817 818 818 821 820 819 819 820 822 823 825 826 830 831 831 834 834 834
794 798 802 803 804 807 808 809 812 815 816 817 817 817 817 816 815 816 816 815 814 813 814 813 813 813 814 814 815 819 822 817 817 817 817 820 822 825 827 829 830 830 830
794 797 802 802 803 806 808 808 812 814 814 816 815 814 814 814 814 814 814 813 811 810 809 809 811 810 810 811 812 815 824 823 817 814 814 816 818 822 823 825 826 826 827
794 798 802 804 805 807 810 810 811 814 814 814 814 813 813 813 812 812 811 810 808 807 806 806 806 806 807 808 810 811 812 814 818 818 813 811 813 818 820 821 822 822 823
795 799 802 805 807 811 812 813 813 814 813 813 813 813 812 812 812 812 810 808 807 805 802 801 801 802 804 804 805 807 810 812 813 816 820 815 814 816 818 819 819 819 821
795 799 802 803 806 811 814 815 815 815 815 815 814 813 814 813 812 810 809 807 804 803 801 799 798 799 801 800 801 803 805 808 810 811 816 818 816 814 815 816 816 817 817
Wind_Speed
26 21 18 19 19 19 18 18 19 20 20 21 22 20 18 17 18 20 19 17 16 14 13 11 10 10 12 14 13 15 15 16 19 19 21 20 19 18 20 19 17 18 18
30 22 19 20 20 20 18 17 18 20 19 19 20 18 17 16 16 16 16 14 13 12 11 10 9 9 10 14 13 14 16 17 19 20 19 18 16 16 16 19 17 17 17
29 24 23 22 21 21 19 18 18 18 18 18 18 16 15 14 15 14 12 12 10 10 8 9 9 10 10 13 13 14 14 18 18 18 18 17 14 13 16 17 18 16 16
31 27 24 23 22 21 19 18 17 17 17 18 17 16 14 14 14 13 12 10 9 8 7 7 9 10 10 12 15 13 13 16 18 15 17 17 16 16 15 15 18 18 17
30 27 24 22 21 20 18 17 16 17 17 16 15 14 13 13 12 11 10 9 8 7 6 6 8 9 10 12 14 13 13 16 17 16 18 15 16 15 14 15 16 16 16
31 28 25 23 20 19 18 16 16 16 16 15 14 13 13 12 10 9 9 8 7 7 7 6 6 8 9 12 13 14 13 11 12 16 11 13 15 16 16 14 15 15 16
31 28 25 22 21 20 18 17 16 15 14 14 14 13 12 11 8 7 6 6 7 6 6 7 7 5 7 12 13 12 13 12 10 6 13 15 15 15 17 16 15 14 14
32 27 24 21 20 19 18 16 16 15 14 13 12 12 12 10 9 7 6 6 6 7 6 7 7 7 7 9 11 11 11 10 9 7 9 15 14 16 16 17 16 13 14
31 28 24 22 20 18 17 16 16 15 14 13 12 11 11 10 8 7 6 6 6 6 6 6 6 7 8 8 10 11 11 9 6 6 12 18 12 14 16 16 16 14 14
31 28 26 23 21 19 17 16 16 15 14 14 12 10 9 8 7 5 5 5 5 6 6 6 6 6 8 11 12 12 12 9 9 6 14 17 14 14 16 15 15 15 14
25 26 25 23 21 19 18 16 14 13 13 14 11 9 8 6 6 4 4 4 4 5 6 7 7 7 8 9 11 12 12 10 9 9 13 16 16 15 17 17 16 16 15
26 26 25 23 21 19 18 17 16 14 12 12 12 10 9 8 5 5 5 6 8 7 7 7 7 7 7 8 9 9 11 10 12 10 11 16 17 16 16 17 17 16 16
28 26 25 23 21 20 18 17 16 15 12 10 9 10 8 9 8 5 7 8 8 10 9 8 9 9 10 10 9 10 9 10 12 9 12 14 17 15 16 17 17 17 17
28 28 26 23 21 19 16 16 15 15 14 11 9 12 11 12 11 6 7 8 11 11 11 11 10 11 12 13 12 11 8 11 14 15 11 17 16 16 17 17 18 19 18
29 28 28 26 24 21 16 15 14 14 16 12 17 14 14 13 10 5 7 7 14 14 16 15 13 15 14 15 16 14 13 12 14 15 10 16 19 14 17 18 20 20 20
30 29 28 26 23 16 15 11 12 14 15 16 16 14 17 13 13 10 11 13 17 14 16 15 15 16 18 18 15 19 17 16 15 17 17 14 20 17 19 19 21 22 22
27 27 28 20 17 16 15 12 7 7 8 13 15 18 18 19 18 14 16 17 17 19 18 18 19 19 20 24 23 18 18 14 16 18 18 18 16 17 19 21 21 23 23
27 27 26 23 16 16 15 14 6 6 6 9 11 14 18 17 16 13 16 18 14 15 17 19 17 17 17 18 19 22 23 15 17 19 18 19 21 22 22 24 24 23 24
29 28 27 21 14 18 14 14 9 5 4 7 9 11 14 11 12 13 16 16 14 15 15 17 18 19 20 20 17 15 16 17 15 17 19 22 23 25 25 25 26 27 25
28 28 24 16 13 12 16 12 9 5 5 9 8 7 6 8 12 18 12 12 12 14 15 17 18 17 19 18 14 13 14 17 16 19 23 24 26 27 26 27 25 27 30
27 26 20 14 15 21 17 10 10 9 5 2 9 7 6 6 4 8 8 7 9 12 13 16 22 18 19 20 15 13 17 18 19 24 30 30 29 24 25 26 29 24 23
31 22 14 14 16 16 13 7 9 6 1 3 6 4 3 4 5 7 8 11 11 11 12 13 14 18 20 17 7 3 3 6 15 20 25 27 29 26 24 23 25 26 27
23 19 16 15 12 17 11 11 9 4 3 2 4 3 5 5 6 8 9 11 12 11 13 13 12 13 14 18 21 7 2 3 3 11 19 28 31 27 21 21 20 21 23
20 19 15 13 13 15 13 9 4 2 1 3 6 7 7 10 9 8 11 8 9 11 11 11 11 11 12 16 18 24 11 7 3 3 4 10 18 21 18 18 17 16 17
22 19 16 13 14 13 11 7 2 3 8 7 8 9 7 8 9 10 8 7 6 9 11 11 9 10 12 16 17 10 24 23 18 3 2 7 7 13 14 12 12 13 15
20 19 15 13 16 12 8 6 5 5 5 7 9 10 8 9 12 13 10 9 8 7 7 7 4 6 8 11 15 16 14 5 9 5 2 5 4 1 3 1 3 7 12
Wind_Direction
161 155 153 148 146 140 131 122 119 119 119 124 125 124 122 124 130 135 137 138 139 136 130 130 127 128 124 129 126 127 127 125 122 123 122 119 122 122 117 114 115 113 115
157 155 149 147 146 143 134 124 122 124 126 129 130 126 125 126 128 134 137 136 135 132 134 135 130 131 132 130 126 128 128 127 127 126 121 119 124 128 124 125 122 121 118
152 152 150 149 148 144 139 132 127 126 127 130 131 127 124 127 130 129 126 124 129 131 141 145 147 145 143 135 132 131 134 132 128 129 129 124 125 140 128 126 129 125 127
150 150 149 149 149 148 142 135 132 133 133 135 135 131 128 127 130 130 126 125 128 127 132 153 167 156 155 147 136 140 142 135 128 127 130 119 121 129 133 134 133 130 127
148 147 149 151 149 148 146 142 140 139 137 137 136 133 132 133 136 135 132 131 127 126 133 143 161 162 167 153 144 149 147 146 146 134 138 140 140 140 141 141 136 136 135
148 147 148 149 149 150 148 145 144 143 143 143 142 137 136 134 138 141 142 138 133 137 150 147 163 166 163 154 152 153 147 145 165 157 164 156 154 152 149 148 145 140 139
151 150 149 152 151 151 150 149 149 149 146 147 145 144 140 139 146 150 154 152 149 150 157 155 157 166 163 159 158 162 153 149 142 152 177 168 160 157 153 154 155 148 148
155 153 154 155 154 151 151 152 151 151 151 151 149 146 144 152 157 161 166 176 171 165 161 161 160 167 169 164 164 170 170 152 150 164 189 181 168 165 163 164 163 160 157
160 157 159 157 155 153 154 154 155 155 154 153 155 156 153 153 160 163 169 175 188 186 181 172 165 166 167 171 177 177 177 173 172 194 193 191 183 183 171 170 170 169 167
162 163 162 160 159 157 159 163 162 161 159 156 159 165 163 164 165 173 185 192 200 207 198 189 181 177 183 179 177 187 185 181 172 154 188 193 186 193 180 179 178 177 177
165 168 166 164 165 165 166 164 166 168 165 161 168 173 175 183 176 197 228 224 224 229 222 211 198 191 192 201 191 192 198 193 195 187 203 202 194 198 189 188 187 184 185
172 176 174 172 174 172 173 175 174 174 179 178 176 181 197 202 200 231 235 242 253 243 227 224 220 207 208 213 212 211 209 200 201 216 231 206 201 203 203 195 195 192 190
176 179 182 179 179 179 180 185 183 180 184 191 188 183 184 192 226 207 220 235 245 249 235 229 218 217 215 217 214 220 240 227 219 228 222 216 209 209 213 208 203 202 198
180 184 183 182 182 183 187 191 193 190 184 178 217 215 206 218 214 206 232 225 250 249 238 227 227 228 225 222 225 220 226 244 237 243 239 216 218 219 223 221 215 211 208
187 192 190 189 188 184 188 200 202 204 215 208 213 220 230 235 248 230 231 246 243 237 242 241 236 233 230 224 224 225 225 222 235 237 241 241 222 230 230 230 227 220 216
189 194 191 193 188 188 198 199 210 214 235 237 235 226 232 239 237 235 236 245 230 224 235 238 243 244 238 232 224 228 231 224 227 244 247 246 236 245 233 235 235 228 224
194 196 192 190 188 190 194 192 222 236 231 249 250 245 228 251 237 235 241 252 244 234 240 252 256 253 246 238 237 237 222 236 234 246 251 243 231 240 236 236 236 238 234
191 192 192 192 183 181 194 191 195 240 255 276 274 251 251 240 235 250 241 256 264 269 254 249 252 251 247 248 248 243 243 257 241 236 244 247 245 243 241 242 238 239 240
193 188 186 184 176 173 183 188 187 207 231 254 272 262 266 249 236 237 248 260 272 270 273 271 251 245 256 256 252 264 240 245 245 244 246 242 244 246 246 250 246 241 242
188 181 182 189 178 177 160 158 169 189 211 216 247 250 254 232 249 249 246 265 275 275 269 264 259 256 254 258 251 267 270 252 246 250 251 248 244 245 247 257 252 246 243
168 165 173 178 161 152 148 168 194 210 177 248 294 275 263 269 241 234 262 275 281 282 281 268 264 251 248 249 259 274 268 264 264 260 255 253 250 248 250 253 253 258 256
155 157 167 151 145 158 174 207 165 163 65 316 272 281 295 322 330 320 312 306 304 294 288 279 264 247 248 243 179 99 316 288 264 265 255 254 251 252 254 256 258 256 260
158 166 149 157 153 158 161 143 144 185 287 304 24 42 21 352 323 301 297 300 304 299 297 288 269 253 232 222 220 173 169 232 337 257 259 256 253 245 251 258 261 261 260
162 158 154 160 160 162 166 162 161 124 49 27 63 41 61 65 54 3 334 323 315 311 300 295 280 256 240 219 210 209 202 172 185 325 324 275 243 232 249 258 262 258 261
156 155 151 155 167 173 168 172 192 101 86 82 77 66 69 42 25 19 12 352 335 321 318 306 274 251 241 231 216 198 224 235 232 141 277 305 216 232 254 268 269 269 259
156 157 157 158 160 170 184 165 132 114 91 88 72 69 59 37 25 16 13 12 1 342 338 337 295 248 256 241 231 226 214 191 218 181 145 278 273 62 95 283 278 253 229